Find Starlink 33982

NORAD ID: 63707 Int'l Des: 2025-087 Owner: SPXS Country: US Constellation: starlink operational
LEOCIRCULAR

Live Position

Loading 3D Globe...

About Starlink 33982

Description loading...

Upcoming Passes

Passes for default location (London). Set your location on the main map for personalized predictions.

Altitude History

Loading altitude history...

Two-Line Element Set

1 63707U 25087L 26123.96432956 .00020014 00000-0 68603-3 0 9996
2 63707 53.1596 322.7196 0000868 95.8568 264.2532 15.30200469 57665
Epoch: May 3, 2026 • Age: 16 hours

Current Status

Altitude 475.4 km
Velocity 7.63 km/s
Sub-Earth Point 6.42°N, 120.82°W
Launch Date Apr 28, 2025
Age 1 years
Type internet

Technical Details

Classification Payload
Mass 575.00 kg
Dry Mass 530.00 kg
Total Mass 575.00 kg
Length 0.30 m
Diameter 4.10 m
Span 29.00 m
Shape Box + pan
Manufacturer SPXS
Bus Type Starlink V2MO
Phase Status In Orbit
Owner/State SPXS/US

Most Searched